CW8198 Weather Reports


time (UTC)temp
F
wind
direction
speed
knots
gust
knots
rain 1hr
in
rain 24hr
in
rain mn
in
humidity
%
barometer
mb
20260510211507 74 284 6.1 8.7 0.00 0.00 0.00 32 1019.9
20260510211006 74 247 2.6 7.0 0.00 0.00 0.00 30 1019.8
20260510210505 73 11 2.6 8.7 0.00 0.00 0.00 36 1019.9
20260510210006 73 295 2.6 8.7 0.00 0.00 0.00 34 1019.9
20260510205505 73 252 3.5 11.3 0.00 0.00 0.00 34 1019.9
20260510204504 74 249 2.6 7.8 0.00 0.00 0.00 36 1020.0
20260510204004 74 346 3.5 7.8 0.00 0.00 0.00 30 1020.1
20260510203504 75 9 3.5 7.8 0.00 0.00 0.00 32 1020.0
20260510201002 75 265 5.2 13.0 0.00 0.00 0.00 31 1020.2
20260510200001 76 236 5.2 13.0 0.00 0.00 0.00 30 1020.2
20260510195501 76 257 7.0 13.0 0.00 0.00 0.00 32 1020.3
20260510195001 75 287 3.5 9.6 0.00 0.00 0.00 33 1020.5
20260510194500 75 273 5.2 9.6 0.00 0.00 0.00 29 1020.5
20260510194000 75 303 2.6 12.2 0.00 0.00 0.00 36 1020.6
20260510192959 74 237 4.3 10.4 0.00 0.00 0.00 32 1020.7
20260510192459 74 289 6.1 10.4 0.00 0.00 0.00 33 1021.0
20260510191958 74 265 3.5 15.6 0.00 0.00 0.00 36 1021.1
20260510191459 74 282 3.5 15.6 0.00 0.00 0.00 39 1021.1
20260510190958 73 340 5.2 12.2 0.00 0.00 0.00 33 1021.0
20260510190458 73 334 4.3 10.4 0.00 0.00 0.00 32 1021.1
20260510185958 73 257 2.6 9.6 0.00 0.00 0.00 33 1021.1
20260510185456 73 275 5.2 9.6 0.00 0.00 0.00 32 1021.3
20260510184957 73 250 1.7 9.6 0.00 0.00 0.00 32 1021.4
20260510184456 73 259 3.5 8.7 0.00 0.00 0.00 37 1021.4
20260510183955 73 259 2.6 8.7 0.00 0.00 0.00 36 1021.4
20260510183455 73 196 2.6 8.7 0.00 0.00 0.00 31 1021.3
20260510182955 72 291 1.7 11.3 0.00 0.00 0.00 40 1021.4
20260510182455 72 286 4.3 11.3 0.00 0.00 0.00 35 1021.6
20260510181955 72 301 5.2 13.0 0.00 0.00 0.00 40 1021.6
20260510181455 72 346 3.5 13.0 0.00 0.00 0.00 37 1021.7
20260510180453 71 289 2.6 9.6 0.00 0.00 0.00 39 1021.7
20260510175953 70 236 2.6 10.4 0.00 0.00 0.00 36 1021.7
20260510175453 70 217 5.2 10.4 0.00 0.00 0.00 31 1021.9
20260510174952 71 243 5.2 11.3 0.00 0.00 0.00 36 1021.9
20260510173950 69 317 3.5 8.7 0.00 0.00 0.00 38 1022.1
20260510173453 69 296 2.6 11.3 0.00 0.00 0.00 34 1022.0
20260510172950 69 178 1.7 11.3 0.00 0.00 0.00 35 1022.0
20260510172450 69 247 4.3 8.7 0.00 0.00 0.00 35 1022.1
20260510171951 69 302 1.7 10.4 0.00 0.00 0.00 43 1022.1
20260510171449 69 240 5.2 10.4 0.00 0.00 0.00 33 1022.1
20260510170950 69 325 1.7 6.1 0.00 0.00 0.00 41 1022.1
20260510170449 68 346 1.7 7.8 0.00 0.00 0.00 40 1022.2
20260510165948 67 293 2.6 7.8 0.00 0.00 0.00 42 1022.3
20260510165449 66 244 3.5 8.7 0.00 0.00 0.00 36 1022.4
20260510164948 67 223 5.2 10.4 0.00 0.00 0.00 35 1022.4
20260510164447 68 219 6.1 10.4 0.00 0.00 0.00 35 1022.4
20260510163947 68 284 3.5 7.0 0.00 0.00 0.00 33 1022.4
20260510163447 68 9 1.7 7.8 0.00 0.00 0.00 39 1022.4
20260510162947 68 246 4.3 7.8 0.00 0.00 0.00 37 1022.3
20260510162446 67 273 2.6 8.7 0.00 0.00 0.00 36 1022.2
20260510160945 67 309 0.9 5.2 0.00 0.00 0.00 41 1022.3
20260510160445 66 250 2.6 6.1 0.00 0.00 0.00 37 1022.2
20260510155945 66 51 2.6 6.1 0.00 0.00 0.00 37 1022.3
20260510155445 66 265 1.7 7.8 0.00 0.00 0.00 40 1022.4
20260510154944 65 270 3.5 7.8 0.00 0.00 0.00 40 1022.4
20260510154444 64 221 0.9 4.3 0.00 0.00 0.00 40 1022.4
20260510153943 64 200 0.9 7.0 0.00 0.00 0.00 37 1022.4
20260510153443 63 51 2.6 7.0 0.00 0.00 0.00 39 1022.5
20260510151943 62 226 3.5 7.0 0.00 0.00 0.00 37 1022.3
20260510151441 62 225 2.6 6.1 0.00 0.00 0.00 39 1022.3
20260510150941 62 178 3.5 6.1 0.00 0.00 0.00 39 1022.3
20260510150436 62 123 2.6 6.1 0.00 0.00 0.00 40 1022.3
20260510145935 61 133 1.7 6.1 0.00 0.00 0.00 40 1022.3
20260510145435 61 265 2.6 6.1 0.00 0.00 0.00 41 1022.3
20260510144934 61 164 1.7 6.1 0.00 0.00 0.00 43 1022.2
20260510144433 60 137 2.6 6.1 0.00 0.00 0.00 43 1022.2
20260510143933 59 162 1.7 5.2 0.00 0.00 0.00 44 1022.2
20260510143432 59 193 1.7 5.2 0.00 0.00 0.00 42 1022.2
20260510142934 59 173 2.6 4.3 0.00 0.00 0.00 44 1022.1
20260510142432 58 137 0.9 3.5 0.00 0.00 0.00 46 1022.1
20260510141934 58 232 1.7 3.5 0.00 0.00 0.00 47 1022.0
20260510141432 56 126 0.9 2.6 0.00 0.00 0.00 49 1021.9
20260510135931 53 205 0.0 1.7 0.00 0.00 0.00 60 1021.8
20260510134430 50 34 0.9 2.6 0.00 0.00 0.00 71 1021.8
20260510133930 48 325 0.9 2.6 0.00 0.00 0.00 74 1021.9
20260510133429 47 9 0.9 2.6 0.00 0.00 0.00 76 1021.9
20260510132930 45 309 1.7 3.5 0.00 0.00 0.00 78 1021.8
20260510132430 44 336 1.7 3.5 0.00 0.00 0.00 80 1021.7
20260510131928 43 336 1.7 2.6 0.00 0.00 0.00 82 1021.8
20260510131428 42 9 0.9 2.6 0.00 0.00 0.00 82 1021.8
20260510130928 41 265 0.9 2.6 0.00 0.00 0.00 82 1021.8
20260510130428 41 309 0.9 2.6 0.00 0.00 0.00 83 1021.5
20260510125929 40 9 0.9 2.6 0.00 0.00 0.00 84 1021.5
20260510125428 40 341 0.9 2.6 0.00 0.00 0.00 84 1021.5
20260510124927 39 9 0.9 2.6 0.00 0.00 0.00 85 1021.6
20260510124426 39 319 0.9 1.7 0.00 0.00 0.00 85 1021.6
20260510123925 39 325 0.0 0.9 0.00 0.00 0.00 85 1021.6
20260510123426 38 51 0.0 0.9 0.00 0.00 0.00 85 1021.3
20260510122925 38 238 0.0 1.7 0.00 0.00 0.00 85 1021.3
20260510122419 38 9 0.0 1.7 0.00 0.00 0.00 85 1021.2
20260510121422 37 334 0.9 1.7 0.00 0.00 0.00 84 1021.3
20260510120919 37 325 0.9 1.7 0.00 0.00 0.00 85 1021.2
20260510120417 37 17 0.9 1.7 0.00 0.00 0.00 84 1021.3
20260510115917 37 238 0.0 0.9 0.00 0.00 0.00 84 1021.2
20260510115416 37 153 0.0 0.9 0.00 0.00 0.00 84 1021.2
20260510114916 37 265 0.0 1.7 0.00 0.00 0.00 84 1021.1
20260510114412 37 9 0.9 1.7 0.00 0.00 0.00 84 1021.0
20260510113905 37 51 0.0 0.9 0.00 0.00 0.00 83 1021.2
20260510113407 36 265 0.0 0.9 0.00 0.00 0.00 83 1021.1
20260510112406 37 137 0.0 0.9 0.00 0.00 0.00 83 1021.0
20260510111404 37 341 0.9 1.7 0.00 0.00 0.00 83 1020.9
20260510110904 37 309 0.9 0.9 0.00 0.00 0.00 82 1021.0
20260510110403 37 9 0.0 0.9 0.00 0.00 0.00 82 1021.0
20260510105904 37 325 0.0 0.9 0.00 0.00 0.00 82 1021.0
20260510104902 37 108 0.0 1.7 0.00 0.00 0.00 82 1020.8
20260510104352 37 137 0.9 1.7 0.00 0.00 0.00 81 1020.8
20260510103852 37 129 0.9 1.7 0.00 0.00 0.00 81 1020.8
20260510102851 37 34 0.9 0.9 0.00 0.00 0.00 80 1020.9
20260510102347 38 309 0.0 0.9 0.00 0.00 0.00 80 1020.7
20260510101846 38 265 0.0 0.9 0.00 0.00 0.00 80 1020.6
20260510101335 38 178 0.0 0.9 0.00 0.00 0.00 80 1020.4
20260510100836 38 205 0.0 0.9 0.00 0.00 0.00 80 1020.3
20260510100335 38 178 0.0 0.9 0.00 0.00 0.00 80 1020.4
20260510095834 38 93 0.9 1.7 0.00 0.00 0.00 80 1020.3
20260510095334 38 129 0.9 1.7 0.00 0.00 0.00 80 1020.3
20260510094333 38 9 0.0 0.9 0.00 0.00 0.00 79 1020.0
20260510093832 38 51 0.0 0.9 0.00 0.00 0.00 79 1019.9
20260510093334 38 221 0.9 0.9 0.00 0.00 0.00 79 1019.9
20260510092332 39 309 0.9 1.7 0.00 0.00 0.00 78 1019.7
20260510091832 39 334 0.9 1.7 0.00 0.00 0.00 78 1019.6
20260510090831 39 334 0.9 1.7 0.00 0.00 0.00 77 1019.7
20260510090332 40 291 0.0 1.7 0.00 0.00 0.00 77 1019.4
20260510085831 40 9 0.9 1.7 0.00 0.00 0.00 77 1019.3
20260510085330 40 9 0.0 0.9 0.00 0.00 0.00 77 1019.3
20260510084832 40 325 0.0 0.9 0.00 0.00 0.00 75 1019.3
20260510084330 40 319 0.9 0.9 0.00 0.00 0.00 74 1019.6
20260510083830 40 309 0.0 0.9 0.00 0.00 0.00 74 1019.4
20260510082829 40 137 0.0 1.7 0.00 0.00 0.00 73 1019.4
20260510082318 40 238 0.0 0.9 0.00 0.00 0.00 72 1019.2
20260510081818 41 34 0.0 0.9 0.00 0.00 0.00 72 1019.1
20260510081318 41 34 0.0 3.5 0.00 0.00 0.00 71 1019.2
20260510080818 41 119 1.7 3.5 0.00 0.00 0.00 70 1019.1
20260510080318 42 171 0.9 1.7 0.00 0.00 0.00 69 1019.2
20260510075817 42 178 0.0 0.9 0.00 0.00 0.00 69 1019.1
20260510075317 42 325 0.0 0.9 0.00 0.00 0.00 68 1019.1
20260510074816 42 334 0.0 0.9 0.00 0.00 0.00 69 1019.1
20260510074311 42 9 0.0 0.9 0.00 0.00 0.00 68 1018.9
20260510073811 43 162 0.0 0.9 0.00 0.00 0.00 67 1018.9
20260510073312 43 265 0.0 1.7 0.00 0.00 0.00 67 1018.7
20260510072802 43 9 0.0 1.7 0.00 0.00 0.00 66 1018.7
20260510072300 44 9 0.9 1.7 0.00 0.00 0.00 65 1018.6
20260510071259 44 334 0.0 0.9 0.00 0.00 0.00 65 1018.6
20260510070759 45 108 0.0 0.9 0.00 0.00 0.00 64 1018.7
20260510070258 45 334 0.0 0.9 0.00 0.00 0.00 63 1018.6
20260510065743 45 319 0.9 1.7 0.00 0.00 0.00 62 1018.7
20260510065242 46 309 0.0 1.7 0.00 0.00 0.00 62 1018.8
20260510064742 46 162 0.9 1.7 0.00 0.00 0.00 60 1018.7
20260510064242 47 265 0.0 0.9 0.00 0.00 0.00 59 1018.6
20260510063743 47 51 0.0 0.9 0.00 0.00 0.00 58 1018.6
20260510063242 47 298 0.0 1.7 0.00 0.00 0.00 58 1018.5
20260510062743 47 93 0.9 1.7 0.00 0.00 0.00 58 1018.6
20260510062241 47 93 0.0 1.7 0.00 0.00 0.00 58 1018.7
20260510061741 47 22 0.0 0.9 0.00 0.00 0.00 58 1018.7
20260510060735 48 291 0.0 0.9 0.00 0.00 0.00 57 1018.5
20260510055730 49 309 0.0 1.7 0.00 0.00 0.00 55 1018.0
20260510055230 49 9 0.9 1.7 0.00 0.00 0.00 55 1017.9
20260510054730 49 9 0.0 2.6 0.00 0.00 0.00 55 1017.7
20260510054231 49 309 0.9 3.5 0.00 0.00 0.00 55 1017.7
20260510053729 49 9 1.7 3.5 0.00 0.00 0.00 54 1017.5
20260510050727 51 9 2.6 4.3 0.00 0.00 0.00 54 1016.9
20260510050227 51 9 1.7 3.5 0.00 0.00 0.00 53 1016.9
20260510045726 51 19 2.6 4.3 0.00 0.00 0.00 52 1016.8
20260510045227 52 9 1.7 4.3 0.00 0.00 0.00 53 1016.8
20260510044725 52 334 1.7 3.5 0.00 0.00 0.00 52 1016.7
20260510044225 53 341 1.7 2.6 0.00 0.00 0.00 51 1016.6
20260510043726 53 16 1.7 3.5 0.00 0.00 0.00 52 1016.6
20260510043225 53 9 1.7 3.5 0.00 0.00 0.00 50 1016.5
20260510042724 54 24 1.7 3.5 0.00 0.00 0.00 49 1016.5
20260510042224 54 342 1.7 3.5 0.00 0.00 0.00 48 1016.3
20260510041724 54 325 0.9 3.5 0.00 0.00 0.00 51 1016.2
20260510041224 54 309 0.9 4.3 0.00 0.00 0.00 47 1015.9
20260510040723 54 346 1.7 4.3 0.00 0.00 0.00 49 1016.0
20260510040225 54 11 1.7 4.3 0.00 0.00 0.00 49 1015.9
20260510035223 55 341 1.7 3.5 0.00 0.00 0.00 51 1015.8
20260510034723 56 340 1.7 4.3 0.00 0.00 0.00 51 1015.7
20260510033723 56 336 1.7 4.3 0.00 0.00 0.00 47 1015.5
20260510032721 57 31 2.6 5.2 0.00 0.00 0.00 47 1015.2
20260510032221 57 319 2.6 4.3 0.00 0.00 0.00 46 1015.3
20260510031720 58 13 2.6 7.8 0.00 0.00 0.00 46 1015.1
20260510030721 58 344 1.7 4.3 0.00 0.00 0.00 48 1014.9
20260510030221 58 30 1.7 4.3 0.00 0.00 0.00 47 1014.8
20260510025720 58 9 1.7 7.8 0.00 0.00 0.00 45 1014.7
20260510025219 58 337 2.6 7.8 0.00 0.00 0.00 48 1014.7
20260510024719 58 9 3.5 7.8 0.00 0.00 0.00 45 1014.5
20260510024219 59 346 1.7 5.2 0.00 0.00 0.00 44 1014.3
20260510023718 59 338 2.6 4.3 0.00 0.00 0.00 43 1014.2
20260510023218 59 346 2.6 4.3 0.00 0.00 0.00 43 1014.1
20260510021216 61 9 0.9 2.6 0.00 0.00 0.00 39 1013.6
20260510020719 61 19 0.9 2.6 0.00 0.00 0.00 40 1013.6
20260510020216 61 319 1.7 3.5 0.00 0.00 0.00 40 1013.5
20260510015716 62 341 0.9 4.3 0.00 0.00 0.00 40 1013.4
20260510015215 62 344 1.7 4.3 0.00 0.00 0.00 39 1013.3
20260510014215 63 338 1.7 4.3 0.00 0.00 0.00 39 1013.0
20260510013214 64 30 0.9 3.5 0.00 0.00 0.00 39 1012.7
20260510012206 65 9 1.7 5.2 0.00 0.00 0.00 38 1012.5
20260510011706 65 348 3.5 6.1 0.00 0.00 0.00 36 1012.3
20260510011207 66 23 1.7 6.1 0.00 0.00 0.00 38 1012.2
20260510010705 67 40 1.7 6.1 0.00 0.00 0.00 38 1012.1
20260510010206 67 34 3.5 7.0 0.00 0.00 0.00 37 1012.1
20260510005704 67 33 3.5 7.0 0.00 0.00 0.00 39 1012.0
20260510005203 67 329 2.6 7.0 0.00 0.00 0.00 38 1011.9
20260510004704 68 39 2.6 8.7 0.00 0.00 0.00 38 1011.9
20260510004203 68 54 3.5 8.7 0.00 0.00 0.00 40 1011.8
20260510003702 68 38 2.6 8.7 0.00 0.00 0.00 44 1011.7
20260510003202 68 9 4.3 8.7 0.00 0.00 0.00 43 1011.7
20260510002702 68 332 3.5 6.1 0.00 0.00 0.00 42 1011.6
20260510002200 68 16 2.6 6.1 0.00 0.00 0.00 41 1011.6
20260510001700 68 13 3.5 7.0 0.00 0.00 0.00 42 1011.5
20260510001200 68 51 2.6 7.8 0.00 0.00 0.00 42 1011.6
20260510000700 68 11 2.6 7.8 0.00 0.00 0.00 42 1011.6
20260510000200 67 38 3.5 7.8 0.00 0.00 0.00 46 1011.6
20260509235659 67 344 3.5 7.8 0.00 0.00 0.00 45 1011.5
20260509235159 67 342 3.5 7.8 0.00 0.00 0.00 47 1011.5
20260509234659 67 313 3.5 7.8 0.00 0.00 0.00 46 1011.4
20260509233657 68 346 4.3 10.4 0.00 0.00 0.00 48 1011.5
20260509233156 68 344 4.3 10.4 0.00 0.00 0.00 46 1011.5
20260509232656 68 344 4.3 8.7 0.00 0.00 0.00 47 1011.4
20260509232156 68 350 3.5 7.8 0.00 0.00 0.00 50 1011.4
20260509231645 68 23 3.5 9.6 0.00 0.00 0.00 49 1011.3
20260509230645 68 342 4.3 8.7 0.00 0.00 0.00 48 1011.3
20260509230145 68 18 5.2 9.6 0.00 0.00 0.00 48 1011.3
20260509223643 69 9 4.3 9.6 0.00 0.00 0.00 49 1011.3
20260509222642 69 9 4.3 9.6 0.00 0.00 0.00 48 1011.2
20260509222143 69 350 4.3 9.6 0.00 0.00 0.00 47 1011.2
20260509221642 69 325 5.2 13.0 0.00 0.00 0.00 48 1011.1
20260509221143 69 344 4.3 13.0 0.00 0.00 0.00 50 1011.1
20260509220642 69 327 5.2 11.3 0.00 0.00 0.00 49 1011.1
20260509220143 69 9 5.2 11.3 0.00 0.00 0.00 47 1011.0
20260509215643 69 317 5.2 11.3 0.00 0.00 0.00 49 1011.0
20260509214641 69 346 3.5 7.8 0.00 0.00 0.00 48 1010.8
20260509214142 69 336 3.5 8.7 0.00 0.00 0.00 47 1010.8
20260509213641 69 347 4.3 9.6 0.00 0.00 0.00 47 1010.8
20260509213141 69 337 3.5 13.9 0.00 0.00 0.00 48 1010.8
20260509212640 69 9 6.1 13.9 0.00 0.00 0.00 48 1010.9
20260509212140 69 342 6.1 15.6 0.00 0.00 0.00 48 1010.6